This demonstration page uses our WeatherBlox Daily Observations layout. Learn more.

Left ArrowRight Arrow

39.51506, -84.39828

Hourly Observations for November 10, 2020

Temp ( °F °C ) Dew Point ( °F °C ) Humidity (%) Winds ( mph kmh ) Pressure ( in mb ) Visibility ( mi km ) Precip ( " mm )
12:15 am 00:15 Clear 53 11.4 52 11.1 98 98 Calm 30.11 1019 10 16.0934 0 0
12:35 am 00:35 Clear 53 11.8 53 11.6 99 99 Calm 30.1 1019 10 16.0934 0 0
12:55 am 00:55 Clear 52 11.1 52 10.9 99 99 Calm 30.1 1019 10 16.0934 0 0
1:15 am 01:15 Clear 52 11.3 52 11.3 100 100 Calm 30.1 1019 10 16.0934 0 0
1:35 am 01:35 Clear 52 11.1 52 11 99 99 Calm 30.09 1019 10 16.0934 0 0
1:55 am 01:55 Clear 52 11 52 10.9 99 99 Calm 30.09 1019 10 16.0934 0 0
2:15 am 02:15 Clear 52 11 52 11 100 100 Calm 30.09 1019 10 16.0934 0 0
2:35 am 02:35 Clear 52 11 N/A N/A Calm 30.09 1019 10 16.0934 0 0
2:55 am 02:55 Clear 51 10.5 51 10.4 99 99 Calm 30.09 1019 10 16.0934 0 0
3:15 am 03:15 Clear 51 10.4 51 10.3 99 99 Calm 30.09 1019 10 16.0934 0 0
3:35 am 03:35 Clear 51 10.4 51 10.3 99 99 Calm 30.09 1019 10 16.0934 0 0
3:55 am 03:55 Clear 50 10 50 10 100 100 Calm 30.08 1019 10 16.0934 0 0
4:15 am 04:15 Clear 48 9 48 9 100 100 Calm 30.08 1019 10 16.0934 0 0
4:35 am 04:35 Clear 50 10 N/A N/A Calm 30.08 1019 10 16.0934 0 0
4:55 am 04:55 Clear 48 9 N/A N/A Calm 30.08 1019 10 16.0934 0 0
5:15 am 05:15 Mostly Cloudy 48 9 N/A N/A Calm 30.09 1019 10 16.0934 0 0
5:35 am 05:35 Cloudy 50 10 N/A N/A Calm 30.08 1019 10 16.0934 0 0
5:55 am 05:55 Cloudy 52 10.9 51 10.8 99 99 Calm 30.08 1019 10 16.0934 0 0
6:15 am 06:15 Cloudy 52 11 52 10.9 99 99 Calm 30.08 1019 10 16.0934 0 0
6:35 am 06:35 Mostly Cloudy 52 11.1 52 11 99 99 Calm 30.09 1019 10 16.0934 0 0
6:55 am 06:55 Cloudy 52 11 51 10.8 99 99 Calm 30.08 1019 10 16.0934 0 0
7:15 am 07:15 Cloudy 53 11.4 52 11.1 98 98 Calm 30.08 1018 10 16.0934 0 0
7:35 am 07:35 Cloudy 53 11.7 52 11.2 97 97 Calm 30.07 1018 10 16.0934 0 0
7:55 am 07:55 Mostly Cloudy 53 11.9 53 11.6 98 98 Calm 30.07 1018 10 16.0934 0 0
8:15 am 08:15 Cloudy 55 12.5 54 12 97 97 Calm 30.07 1018 10 16.0934 0 0
8:35 am 08:35 Cloudy 58 14.4 56 13.2 93 93 Calm 30.07 1018 10 16.0934 0 0
8:55 am 08:55 Mostly Cloudy 63 17.1 58 14.3 84 84 Calm 30.05 1018 10 16.0934 0 0
9:15 am 09:15 Mostly Cloudy 66 19 56 13.2 69 69 WSW 3 6 30.05 1018 10 16.0934 0 0
9:35 am 09:35 Partly Cloudy 67 19.3 56 13.5 69 69 Calm 30.05 1017 10 16.0934 0 0
9:55 am 09:55 Cloudy 68 20.2 57 13.8 67 67 WSW 9 15 30.04 1017 10 16.0934 0 0
10:15 am 10:15 Cloudy 69 20.7 57 13.8 65 65 WSW 9 15 30.03 1017 10 16.0934 0 0
10:35 am 10:35 Cloudy 70 21.3 58 14.2 64 64 WSW 13 20 30.03 1017 10 16.0934 0 0
10:55 am 10:55 Cloudy 71 21.9 57 14.1 61 61 SW 12 19 30.03 1017 10 16.0934 0 0
11:15 am 11:15 Partly Cloudy 73 22.5 57 14 59 59 WSW 12 19 30.02 1017 10 16.0934 0 0
11:35 am 11:35 Partly Cloudy 74 23.2 57 14.1 57 57 WSW 14 22 30.01 1016 10 16.0934 0 0
11:55 am 11:55 Partly Cloudy 74 23.6 58 14.5 57 57 WSW 13 20 30 1016 10 16.0934 0 0
12:15 pm 12:15 Sunny 75 24 58 14.6 56 56 WSW 18 30 29.98 1015 10 16.0934 0 0
12:35 pm 12:35 Sunny 76 24.4 59 14.8 55 55 WSW 14 22 29.95 1014 10 16.0934 0 0
12:55 pm 12:55 Sunny 77 24.9 60 15.3 55 55 SW 13 20 29.93 1014 10 16.0934 0 0
1:15 pm 13:15 Sunny 78 25.4 59 15.2 53 53 WSW 16 26 29.92 1013 10 16.0934 0 0
1:35 pm 13:35 Sunny 78 25.4 59 15.2 53 53 SW 18 30 29.91 1013 10 16.0934 0 0
1:55 pm 13:55 Sunny 78 25.8 60 15.3 52 52 WSW 16 26 29.9 1013 10 16.0934 0 0
2:15 pm 14:15 Partly Cloudy 80 26.4 60 15.6 52 52 WSW 13 20 29.9 1013 10 16.0934 0 0
2:35 pm 14:35 Partly Cloudy 78 25.7 60 15.3 53 53 WSW 13 20 29.89 1012 10 16.0934 0 0
2:55 pm 14:55 Partly Cloudy 78 25.5 60 15.5 54 54 WSW 12 19 29.88 1012 10 16.0934 0 0
3:15 pm 15:15 Mostly Cloudy 78 25.6 60 15.5 54 54 WSW 14 22 29.88 1012 10 16.0934 0 0
3:35 pm 15:35 Mostly Cloudy 78 25.4 60 15.3 54 54 WSW 12 19 29.87 1012 10 16.0934 0 0
3:55 pm 15:55 Mostly Cloudy 78 25.4 60 15.3 54 54 WSW 17 28 29.87 1012 10 16.0934 0 0
4:55 pm 16:55 Sunny 76 24.6 59 15.2 56 56 WSW 13 20 29.86 1011 10 16.0934 0 0
5:15 pm 17:15 Sunny 76 24.3 59 15.2 57 57 WSW 12 19 29.85 1011 10 16.0934 0 0
5:35 pm 17:35 Clear 75 24 59 14.9 57 57 WSW 14 22 29.86 1011 10 16.0934 0 0
5:55 pm 17:55 Partly Cloudy 74 23.6 59 14.8 58 58 WSW 8 13 29.85 1011 10 16.0934 0 0
6:15 pm 18:15 Mostly Cloudy 75 23.7 59 14.8 58 58 SW 9 15 29.85 1011 10 16.0934 0 0
6:35 pm 18:35 Partly Cloudy 74 23.3 59 14.9 59 59 SW 9 15 29.85 1011 10 16.0934 0 0
6:55 pm 18:55 Cloudy 74 23.6 59 15 59 59 WSW 10 17 29.85 1011 10 16.0934 0 0
7:15 pm 19:15 Cloudy 74 23.4 59 15 59 59 WSW 8 13 29.85 1011 10 16.0934 0 0
7:35 pm 19:35 Cloudy 74 23.5 59 15 59 59 SW 8 13 29.84 1010 10 16.0934 0 0
7:55 pm 19:55 Partly Cloudy 74 23.5 59 14.9 59 59 SW 8 13 29.84 1010 10 16.0934 0 0
8:15 pm 20:15 Cloudy 74 23.4 59 15 59 59 WSW 7 11 29.85 1011 10 16.0934 0 0
8:35 pm 20:35 Cloudy 74 23.3 59 15.1 60 60 WSW 12 19 29.85 1011 10 16.0934 0 0
8:55 pm 20:55 Cloudy 74 23.3 60 15.7 62 62 WSW 22 35 29.85 1011 10 16.0934 0 0
9:15 pm 21:15 Cloudy with Drizzle 71 21.6 63 17.2 76 76 WSW 18 30 29.86 1011 10 16.0934 0 0
9:35 pm 21:35 Cloudy with Rain 68 20.2 65 18.3 89 89 WSW 17 28 29.87 1012 5 8.0467 0.02 0.508
9:55 pm 21:55 Cloudy with Light Rain 67 19.4 66 18.8 96 96 WSW 6 9 29.88 1012 4 6.43736 0.03 0.762
10:15 pm 22:15 Cloudy with Light Rain 67 19.3 66 18.8 97 97 WSW 12 19 29.87 1011 7 11.26538 0 0
10:35 pm 22:35 Cloudy with Drizzle 67 19.2 66 18.8 98 98 WSW 9 15 29.86 1011 10 16.0934 0 0
10:55 pm 22:55 Cloudy 67 19.2 66 18.8 98 98 WSW 13 20 29.86 1011 7 11.26538 0 0
11:15 pm 23:15 Cloudy with Light Rain 66 19 66 18.9 99 99 WSW 13 20 29.86 1011 3.5 5.63269 0.01 0.254
11:35 pm 23:35 Cloudy with Heavy Rain 66 19 66 19 100 100 WSW 12 19 29.85 1011 2.5 4.02335 0.11 2.794
11:55 pm 23:55 Cloudy with Rain 66 19 N/A N/A WSW 10 17 29.84 1010 4 6.43736 0.19 4.826

Powered by AerisWeather